Date String (YYYY-MM-DD hh:mm:ss) UTC,Instrument flags,absolute air pressure of the measurement (hPa),sample flow rate (lpm),inlet stack bypass flow (lpm),air temperature of the measurement (°C),ambient temperature measured by the external sensor (°C),aerosol sample conditioner tube jacket temperature (°C),OPC LED temperature (°C),internal box temperature (°C),relative humidity of the measurement (%),span deviation,mass concentration of particles derived from Lorenz-Mie calculation of OPC scattering (μg/m³),mass concentration of particles derived from Lorenz-Mie calculation of OPC scattering (μg/m³),mass concentration of particles derived from Lorenz-Mie calculation of OPC scattering (μg/m³)
DateTimeUTC,F1_M11,P_M11,Q1_M11,Q2_M11,T1_M11,T2_M11,T3_M11,T4_M11,T5_M11,U1_M11,ZSPAN_M11,X0_M11,X2_M11,X1_M11
2023-10-21 14:00:00,SystemResetWarning,0829.7,4.99,000.00,028.7,027.2,000.0,037.1,030.3,10.6,0000.0,0006.49,0001.68,0000.95
2023-10-21 14:01:00,SystemResetWarning,0829.7,5.00,000.00,028.7,027.2,000.0,037.1,030.3,10.6,0000.0,0005.29,0001.62,0000.97
2023-10-21 14:02:00,SystemResetWarning,0829.7,5.01,000.00,028.7,027.2,000.0,037.1,030.3,10.6,0000.0,0005.38,0001.61,0000.97
2023-10-21 14:03:00,SystemResetWarning,0829.7,5.00,000.00,028.7,027.2,000.0,037.1,030.3,10.6,0000.0,0005.98,0001.61,0000.98
2023-10-21 14:04:00,SystemResetWarning,0829.8,5.00,000.00,028.7,027.2,000.0,037.1,030.3,10.6,0000.0,0005.93,0001.61,0000.99
2023-10-21 14:05:00,SystemResetWarning,0829.7,5.01,000.00,028.7,027.2,000.0,037.1,030.3,10.6,0000.0,0006.10,0001.62,0000.99
2023-10-21 14:06:00,SystemResetWarning,0829.8,4.99,000.00,028.7,027.2,000.0,037.1,030.3,10.6,0000.0,0006.58,0001.62,0000.99
2023-10-21 14:07:00,SystemResetWarning,0829.8,4.99,000.00,028.7,027.2,000.0,037.1,030.3,10.5,0000.0,0006.89,0001.64,0000.99
2023-10-21 14:08:00,SystemResetWarning,0829.8,5.00,000.00,028.7,027.3,000.0,037.1,030.3,10.5,0000.0,0006.93,0001.64,0001.00
2023-10-21 14:09:00,SystemResetWarning,0829.8,5.00,000.00,028.7,027.3,000.0,037.1,030.3,10.5,0000.0,0006.99,0001.67,0001.00
2023-10-21 14:10:00,SystemResetWarning,0829.8,5.01,000.00,028.7,027.3,000.0,037.1,030.3,10.5,0000.0,0006.89,0001.68,0001.01
2023-10-21 14:11:00,SystemResetWarning,0829.7,5.01,000.00,028.7,027.3,000.0,037.1,030.3,10.5,0000.0,0006.18,0001.67,0001.01
2023-10-21 14:12:00,SystemResetWarning,0829.7,5.00,000.00,028.7,027.3,000.0,037.2,030.4,10.5,0000.0,0007.09,0001.69,0001.01
2023-10-21 14:13:00,SystemResetWarning,0829.8,4.98,000.00,028.7,027.3,000.0,037.2,030.4,10.4,0000.0,0007.64,0001.69,0001.01
2023-10-21 14:14:00,SystemResetWarning,0829.7,5.00,000.00,028.7,027.3,000.0,037.2,030.4,10.5,0000.0,0007.28,0001.69,0001.02
2023-10-21 14:15:00,SystemResetWarning,0829.8,5.01,000.00,028.7,027.3,000.0,037.2,030.3,10.5,0000.0,0007.20,0001.67,0001.02
2023-10-21 14:16:00,SystemResetWarning,0829.7,5.01,000.00,028.8,027.4,000.0,037.2,030.4,10.5,0000.0,0007.07,0001.66,0001.03
2023-10-21 14:17:00,SystemResetWarning,0829.7,5.01,000.00,028.8,027.4,000.0,037.2,030.4,10.5,0000.0,0007.12,0001.73,0001.04
2023-10-21 14:18:00,SystemResetWarning,0829.8,5.00,000.00,028.8,027.4,000.0,037.2,030.4,10.7,0000.0,0006.69,0001.75,0001.05
2023-10-21 14:19:00,SystemResetWarning,0829.8,4.99,000.00,028.8,027.4,000.0,037.2,030.4,10.8,0000.0,0007.07,0001.78,0001.07
2023-10-21 14:20:00,SystemResetWarning,0829.8,5.00,000.00,028.8,027.5,000.0,037.2,030.5,10.7,0000.0,0007.76,0001.76,0001.08
2023-10-21 14:21:00,SystemResetWarning,0829.8,5.01,000.00,028.8,027.5,000.0,037.2,030.5,10.6,0000.0,0007.57,0001.76,0001.08
2023-10-21 14:22:00,SystemResetWarning,0829.8,5.01,000.00,028.8,027.5,000.0,037.2,030.5,10.5,0000.0,0007.21,0001.75,0001.09
2023-10-21 14:23:00,SystemResetWarning,0829.8,5.01,000.00,028.9,027.5,000.0,037.2,030.5,10.5,0000.0,0006.51,0001.78,0001.10
2023-10-21 14:24:00,SystemResetWarning,0829.8,5.00,000.00,028.9,027.6,000.0,037.2,030.5,10.6,0000.0,0005.77,0001.86,0001.12
2023-10-21 14:25:00,SystemResetWarning,0829.8,5.00,000.00,028.9,027.6,000.0,037.2,030.5,10.6,0000.0,0005.68,0001.83,0001.11
2023-10-21 14:26:00,SystemResetWarning,0829.8,4.99,000.00,028.9,027.6,000.0,037.3,030.5,10.4,0000.0,0005.86,0001.89,0001.11
2023-10-21 14:27:00,SystemResetWarning,0829.8,5.00,000.00,028.9,027.6,000.0,037.3,030.6,10.3,0000.0,0006.24,0001.88,0001.11
2023-10-21 14:28:00,SystemResetWarning,0829.8,4.99,000.00,028.9,027.6,000.0,037.3,030.6,10.3,0000.0,0007.43,0001.83,0001.12
2023-10-21 14:29:00,SystemResetWarning,0829.8,5.00,000.00,028.9,027.6,000.0,037.3,030.5,10.3,0000.0,0007.72,0001.82,0001.12
2023-10-21 14:30:00,SystemResetWarning,0829.8,5.01,000.00,029.0,027.7,000.0,037.3,030.6,10.5,0000.0,0008.07,0001.85,0001.13
2023-10-21 14:31:00,SystemResetWarning,0829.9,5.00,000.00,029.0,027.7,000.0,037.3,030.6,10.5,0000.0,0007.55,0001.89,0001.11
2023-10-21 14:32:00,SystemResetWarning,0829.9,5.01,000.00,029.0,027.7,000.0,037.3,030.6,10.3,0000.0,0007.68,0001.90,0001.11
2023-10-21 14:33:00,SystemResetWarning,0829.9,5.00,000.00,029.0,027.7,000.0,037.4,030.6,9.9,0000.0,0008.69,0002.01,0001.11
2023-10-21 14:34:00,SystemResetWarning,0829.8,4.98,000.00,029.0,027.7,000.0,037.4,030.7,9.9,0000.0,0008.84,0001.99,0001.11
2023-10-21 14:35:00,SystemResetWarning,0829.8,5.02,000.00,029.0,027.7,000.0,037.4,030.7,10.1,0000.0,0008.72,0001.91,0001.10
2023-10-21 14:36:00,SystemResetWarning,0829.9,4.99,000.00,029.0,027.8,000.0,037.4,030.7,10.3,0000.0,0009.17,0001.96,0001.11
2023-10-21 14:37:00,SystemResetWarning,0829.9,4.99,000.00,029.1,027.8,000.0,037.4,030.7,10.1,0000.0,0009.29,0001.92,0001.10
2023-10-21 14:38:00,SystemResetWarning,0829.9,5.00,000.00,029.1,027.8,000.0,037.4,030.7,10.1,0000.0,0009.30,0001.95,0001.10
2023-10-21 14:39:00,SystemResetWarning,0829.9,5.00,000.00,029.1,027.8,000.0,037.4,030.7,10.3,0000.0,0008.45,0001.98,0001.09
2023-10-21 14:40:00,SystemResetWarning,0829.9,5.00,000.00,029.1,027.8,000.0,037.4,030.7,10.4,0000.0,0008.13,0001.98,0001.08
2023-10-21 14:41:00,SystemResetWarning,0829.9,5.00,000.00,029.1,027.9,000.0,037.5,030.7,10.1,0000.0,0008.61,0001.95,0001.05
2023-10-21 14:42:00,SystemResetWarning,0829.9,5.00,000.00,029.1,027.9,000.0,037.5,030.8,10.2,0000.0,0008.21,0001.88,0001.05
2023-10-21 14:43:00,SystemResetWarning,0829.9,5.00,000.00,029.1,027.9,000.0,037.5,030.8,10.3,0000.0,0008.12,0001.85,0001.06
2023-10-21 14:44:00,SystemResetWarning,0830.0,5.00,000.00,029.2,027.9,000.0,037.5,030.8,10.5,0000.0,0007.58,0001.82,0001.07
2023-10-21 14:45:00,SystemResetWarning,0829.9,5.00,000.00,029.2,027.9,000.0,037.5,030.8,10.6,0000.0,0007.34,0001.82,0001.06
2023-10-21 14:46:00,SystemResetWarning,0829.9,5.00,000.00,029.2,027.9,000.0,037.5,030.8,10.4,0000.0,0007.63,0001.86,0001.06
2023-10-21 14:47:00,SystemResetWarning,0830.0,4.99,000.00,029.2,028.0,000.0,037.5,030.8,10.5,0000.0,0007.74,0001.85,0001.07
2023-10-21 14:48:00,SystemResetWarning,0830.0,4.99,000.00,029.2,028.0,000.0,037.5,030.9,10.7,0000.0,0007.68,0001.82,0001.06
2023-10-21 14:49:00,SystemResetWarning,0830.0,5.02,000.00,029.2,028.0,000.0,037.6,030.8,10.3,0000.0,0007.75,0001.80,0001.06
2023-10-21 14:50:00,SystemResetWarning,0830.0,5.01,000.00,029.2,028.0,000.0,037.6,030.9,10.4,0000.0,0007.61,0001.73,0001.05
2023-10-21 14:51:00,SystemResetWarning,0830.0,4.98,000.00,029.3,028.0,000.0,037.6,030.9,10.5,0000.0,0007.76,0001.74,0001.04
2023-10-21 14:52:00,SystemResetWarning,0830.0,5.01,000.00,029.3,028.1,000.0,037.6,030.9,10.6,0000.0,0006.97,0001.81,0001.06
2023-10-21 14:53:00,SystemResetWarning,0830.0,5.01,000.00,029.3,028.1,000.0,037.6,031.0,10.4,0000.0,0006.74,0001.89,0001.06
2023-10-21 14:54:00,SystemResetWarning,0830.0,4.98,000.00,029.3,028.1,000.0,037.6,031.0,10.2,0000.0,0006.85,0001.95,0001.06
2023-10-21 14:55:00,SystemResetWarning,0830.0,5.00,000.00,029.3,028.1,000.0,037.6,031.0,10.4,0000.0,0006.73,0001.92,0001.05
2023-10-21 14:56:00,SystemResetWarning,0830.0,5.01,000.00,029.3,028.1,000.0,037.7,031.0,10.6,0000.0,0006.21,0001.85,0001.03
2023-10-21 14:57:00,SystemResetWarning,0830.0,5.01,000.00,029.4,028.1,000.0,037.7,031.0,10.5,0000.0,0005.59,0001.81,0001.02
2023-10-21 14:58:00,SystemResetWarning,0830.0,4.99,000.00,029.4,028.1,000.0,037.7,031.0,10.5,0000.0,0006.16,0001.81,0001.01
2023-10-21 14:59:00,SystemResetWarning,0830.0,4.98,000.00,029.4,028.2,000.0,037.7,031.0,10.4,0000.0,0005.25,0001.84,0001.00
